User: anonymous   Login
Location: Unspecified
(0.0000°N, 0.0000°E)
Time: 22:37:55
(UTC+00:00)
Language:

CANX 3B (BRITE-ASRA) - Orbit

View from above orbital plane
View from above orbital plane
View from above satellite
View from above satellite

Ground track
Ground track

The orbit data is extracted from the following two-line orbital elements,

1 39091U 13009F   16243.13992176  .00000049  00000-0  32482-4 0  9995
2 39091  98.5741  84.3809 0011709  90.7752 269.4775 14.34989022183754
Epoch (UTC): 30 August 2016 03:21:29
Eccentricity: 0.0011709
inclination: 98.5741°
perigee height: 767 km
apogee height: 783 km
right ascension of ascending node: 84.3809°
argument of perigee: 90.7752°
revolutions per day: 14.34989022
mean anomaly at epoch: 269.4775°
orbit number at epoch: 18375

The dashed part of the orbit path shows where the satellite is in the earth's shadow,  

DLR